(229771) = 2008 JQ32

Discovered at Kitt Peak on 2008-05-07 by Spacewatch.

Orbit

Orbit type: Main Belt

Note: WebGL enabled browser required.

epoch2024-03-31.0
epoch JD2460400.5
perihelion date2021-06-24.17401
perihelion JD2459389.67402
argument of perihelion (°)189.03352
ascending node (°)71.93343
inclination (°)2.65776
eccentricity0.2259120
perihelion distance (AU)1.6938315
Tisserand w.r.t. Jupiter3.6
ΔV w.r.t. Earth (km/sec)8.0
semimajor axis (AU)2.1881639
mean anomaly (°)307.79440
mean daily motion (°/day)0.30449790
aphelion distance (AU)2.682
period (years)3.24
P-vector [x]-0.15716473
P-vector [y]-0.90315926
P-vector [z]-0.39950295
Q-vector [x]0.98658799
Q-vector [y]-0.12553009
Q-vector [z]-0.10433760
absolute magnitude17.66
phase slope0.15
uncertainty0
referenceE2024-GJ9
observations used341
oppositions15
arc length (days)10577
first opposition used1995
last opposition used2024
residual rms (arc-secs)0.82
perturbers coarse indicatorM-v
perturbers precise indicator003Ek
first observation date used1995-04-28.0
last observation date used2024-04-12.0
computer nameMPCLINUX
JD of orbit computation2456731.518883
perihelion JD uncertainty (days)4.4238E-05
argument of perihelion uncertainty (°)9.0372E-05
ascending node uncertainty (°)8.9502E-05
inclination uncertainty (°)4.3675E-06
eccentricity uncertainty 4.7208E-08
perihelion distance uncertainty (AU)1.0486E-07
Minimum Orbit Intersection Distances (in AU)
for orbit epoch: 2460400.5, reference: E2024-GJ9
Mercury1.22833
Venus0.96742
Earth0.67833
Mars0.18899
Jupiter2.38118
Saturn6.3647
Uranus16.1068
Neptune27.2251

Observations

343 total observations over interval: 1995 04 28.23831 – 2024 03 17.539207
These data are available for download (format description).

Date (UT) J2000 RA J2000 Dec Magn Location Ref
1995 04 28.23831 14 18 25.26 -10 06 27.3   691 – Steward Observatory, Kitt Peak-Spacewatch MPS 252842
1995 04 28.25207 14 18 24.42 -10 06 24.6 19.4 V 691 – Steward Observatory, Kitt Peak-Spacewatch MPS 252842
1995 04 28.26634 14 18 23.53 -10 06 22.3   691 – Steward Observatory, Kitt Peak-Spacewatch MPS 252842
2002 10 04.20599 00 09 44.24 -03 47 53.8 20.3   644 – Palomar Mountain/NEAT MPS 252702
2002 10 04.26940 00 09 40.36 -03 48 12.7 20.3   644 – Palomar Mountain/NEAT MPS 252702
2002 10 04.33173 00 09 36.51 -03 48 30.8 20.3   644 – Palomar Mountain/NEAT MPS 252702
2005 05 20.44676 21 01 44.49 -18 47 15.2 20.0   644 – Palomar Mountain/NEAT MPS 252702
2005 05 20.45742 21 01 45.43 -18 47 13.3 20.3   644 – Palomar Mountain/NEAT MPS 252702
2005 05 20.46875 21 01 46.38 -18 47 11.1 19.7   644 – Palomar Mountain/NEAT MPS 252702
2005 06 09.42867 21 24 47.77 -18 05 26.7 19.9 V 703 – Catalina Sky Survey MPS 252702
2005 06 09.43468 21 24 48.13 -18 05 25.1 19.8 V 703 – Catalina Sky Survey MPS 252702
2005 06 09.44072 21 24 48.38 -18 05 25.9 19.5 V 703 – Catalina Sky Survey MPS 252702
2005 06 09.44675 21 24 48.60 -18 05 24.6 19.7 V 703 – Catalina Sky Survey MPS 252702
2005 06 29.39994 21 33 29.59 -18 31 53.0 19.0   644 – Palomar Mountain/NEAT MPS 252702
2005 06 29.41412 21 33 29.55 -18 31 55.8 19.1   644 – Palomar Mountain/NEAT MPS 252702
2005 06 29.42840 21 33 29.53 -18 31 58.6 19.1   644 – Palomar Mountain/NEAT MPS 252702
2005 07 10.30294 21 31 22.72 -19 17 35.4 19.5 V 703 – Catalina Sky Survey MPS 252702
2005 07 10.30938 21 31 22.51 -19 17 37.4 19.4 V 703 – Catalina Sky Survey MPS 252702
2005 07 10.31588 21 31 22.33 -19 17 38.7 18.9 V 703 – Catalina Sky Survey MPS 252702
2005 07 10.32236 21 31 22.08 -19 17 41.8 19.1 V 703 – Catalina Sky Survey MPS 252702
2005 08 06.21617 21 10 19.43 -21 48 06.3   704 – Lincoln Laboratory ETS, New Mexico MPS 406992
2005 08 06.22802 21 10 18.68 -21 48 10.6   704 – Lincoln Laboratory ETS, New Mexico MPS 406992
2005 08 06.23988 21 10 17.92 -21 48 14.2   704 – Lincoln Laboratory ETS, New Mexico MPS 406992
2005 08 06.25169 21 10 17.17 -21 48 18.0   704 – Lincoln Laboratory ETS, New Mexico MPS 406992
2005 08 29.18672 20 52 21.39 -22 54 00.4   704 – Lincoln Laboratory ETS, New Mexico MPS 406992
2005 08 29.19800 20 52 20.95 -22 54 01.7   704 – Lincoln Laboratory ETS, New Mexico MPS 406992
2005 08 29.20926 20 52 20.61 -22 54 01.0   704 – Lincoln Laboratory ETS, New Mexico MPS 406992
2005 08 29.22051 20 52 20.41 -22 54 01.8   704 – Lincoln Laboratory ETS, New Mexico MPS 406992
2008 03 30.47164 15 35 38.85 -16 00 48.3 20.1 V 691 – Steward Observatory, Kitt Peak-Spacewatch MPS 252702
2008 03 30.48927 15 35 39.17 -16 00 49.9 20.1 V 691 – Steward Observatory, Kitt Peak-Spacewatch MPS 252702
2008 03 30.50690 15 35 39.50 -16 00 51.2 20.3 V 691 – Steward Observatory, Kitt Peak-Spacewatch MPS 252702
2008 04 14.42095 15 36 51.22 -16 13 01.7 19.6 V 691 – Steward Observatory, Kitt Peak-Spacewatch MPS 252702
2008 04 14.43856 15 36 50.93 -16 13 01.9 19.6 V 691 – Steward Observatory, Kitt Peak-Spacewatch MPS 252702
2008 04 14.45618 15 36 50.65 -16 13 02.0 19.8 V 691 – Steward Observatory, Kitt Peak-Spacewatch MPS 252702
2008 04 26.34772 15 31 48.68 -16 11 23.8 18.9 V 703 – Catalina Sky Survey MPS 252702
2008 04 26.35531 15 31 48.39 -16 11 24.4 19.4 V 703 – Catalina Sky Survey MPS 252702
2008 04 26.36293 15 31 48.00 -16 11 22.9 18.8 V 703 – Catalina Sky Survey MPS 252702
2008 04 26.37057 15 31 47.67 -16 11 23.8 20.2 V 703 – Catalina Sky Survey MPS 252702
2008 04 29.28921 15 29 50.77 -16 09 50.7   691 – Steward Observatory, Kitt Peak-Spacewatch MPS 252702
2008 04 29.30684 15 29 49.93 -16 09 50.1   691 – Steward Observatory, Kitt Peak-Spacewatch MPS 252702
2008 04 29.32448 15 29 49.11 -16 09 49.6   691 – Steward Observatory, Kitt Peak-Spacewatch MPS 252702
2008 04 29.34620 15 29 48.10 -16 09 48.2   704 – Lincoln Laboratory ETS, New Mexico MPS 406992
2008 04 29.35665 15 29 47.61 -16 09 48.5   704 – Lincoln Laboratory ETS, New Mexico MPS 406992
2008 04 29.36708 15 29 47.13 -16 09 47.8   704 – Lincoln Laboratory ETS, New Mexico MPS 406992
2008 04 29.37780 15 29 46.58 -16 09 47.8   704 – Lincoln Laboratory ETS, New Mexico MPS 406992
2008 04 29.38823 15 29 46.12 -16 09 46.8   704 – Lincoln Laboratory ETS, New Mexico MPS 406992
2008 05 03.25631 15 26 49.45 -16 07 15.7 18.7 V 691 – Steward Observatory, Kitt Peak-Spacewatch MPS 252565
2008 05 03.27395 15 26 48.42 -16 07 15.6 19.1 V 691 – Steward Observatory, Kitt Peak-Spacewatch MPS 252565
2008 05 03.29161 15 26 47.48 -16 07 14.9 19.0 V 691 – Steward Observatory, Kitt Peak-Spacewatch MPS 252565
2008 05 06.30221 15 24 15.72 -16 05 05.0   704 – Lincoln Laboratory ETS, New Mexico MPS 406992
2008 05 06.31278 15 24 15.10 -16 05 04.9   704 – Lincoln Laboratory ETS, New Mexico MPS 406992
2008 05 06.32333 15 24 14.50 -16 05 03.9   704 – Lincoln Laboratory ETS, New Mexico MPS 406992
2008 05 06.33388 15 24 13.91 -16 05 02.9   704 – Lincoln Laboratory ETS, New Mexico MPS 406992
2008 05 07.24979 15 23 26.29 -16 04 22.7 19.2 V 691 – Steward Observatory, Kitt Peak-Spacewatch MPS 249891
2008 05 07.26747 15 23 25.29 -16 04 21.8 19.0 V 691 – Steward Observatory, Kitt Peak-Spacewatch MPS 249891
2008 05 07.28612 15 23 24.22 -16 04 21.2 19.2 V 691 – Steward Observatory, Kitt Peak-Spacewatch MPS 249891
2008 05 14.30181 15 16 59.98 -15 59 30.2 18.6 V G96 – Mt. Lemmon Survey MPS 249891
2008 05 14.30794 15 16 59.62 -15 59 30.0 18.5 V G96 – Mt. Lemmon Survey MPS 249891
2008 05 14.31401 15 16 59.26 -15 59 29.8 18.2 V G96 – Mt. Lemmon Survey MPS 249891
2008 05 14.32014 15 16 58.87 -15 59 29.7 18.2 V G96 – Mt. Lemmon Survey MPS 249891
2008 05 27.17375 15 05 47.07 -15 56 37.7 19.1 V 691 – Steward Observatory, Kitt Peak-Spacewatch MPS 252702
2008 05 27.19137 15 05 46.16 -15 56 38.5 19.2 V 691 – Steward Observatory, Kitt Peak-Spacewatch MPS 252702
2008 05 27.20900 15 05 45.27 -15 56 38.9 19.3 V 691 – Steward Observatory, Kitt Peak-Spacewatch MPS 252702
2008 05 28.26479 15 04 57.36 -15 57 01.2   704 – Lincoln Laboratory ETS, New Mexico MPS 406992
2008 05 28.27482 15 04 56.94 -15 57 01.4   704 – Lincoln Laboratory ETS, New Mexico MPS 406992
2008 05 28.28491 15 04 56.41 -15 57 01.8   704 – Lincoln Laboratory ETS, New Mexico MPS 406992
2008 05 28.29496 15 04 55.88 -15 57 01.1   704 – Lincoln Laboratory ETS, New Mexico MPS 406992
2008 06 09.22488 14 58 21.16 -16 10 49.4 19.4 V 691 – Steward Observatory, Kitt Peak-Spacewatch MPS 252702
2008 06 09.24256 14 58 20.73 -16 10 51.3 19.3 V 691 – Steward Observatory, Kitt Peak-Spacewatch MPS 252702
2008 06 09.26022 14 58 20.31 -16 10 53.5 19.6 V 691 – Steward Observatory, Kitt Peak-Spacewatch MPS 252702
2009 11 24.18609 04 06 19.51 +20 11 09.6 21.0 V 691 – Steward Observatory, Kitt Peak-Spacewatch MPS 305013
2009 11 24.20388 04 06 18.23 +20 11 07.4 21.6 V 691 – Steward Observatory, Kitt Peak-Spacewatch MPS 305013
2009 11 24.22167 04 06 16.91 +20 11 05.0 21.4 V 691 – Steward Observatory, Kitt Peak-Spacewatch MPS 305013
2009 12 11.21490 03 47 22.34 +19 31 44.2 21.6 V G96 – Mt. Lemmon Survey MPS 306659
2009 12 11.22003 03 47 22.05 +19 31 43.7 21.3 V G96 – Mt. Lemmon Survey MPS 306659
2009 12 11.22517 03 47 21.69 +19 31 42.4 21.4 V G96 – Mt. Lemmon Survey MPS 306659
2009 12 11.23034 03 47 21.40 +19 31 42.6 20.9 V G96 – Mt. Lemmon Survey MPS 306659
2011 03 04.34597 11 49 00.91 +06 36 32.3 19.4 V 703 – Catalina Sky Survey MPS 373299
2011 03 04.35634 11 49 00.26 +06 36 36.3 19.6 V 703 – Catalina Sky Survey MPS 373299
2011 03 04.36663 11 48 59.65 +06 36 40.3 20.5 V 703 – Catalina Sky Survey MPS 373299
2011 03 04.37701 11 48 59.04 +06 36 43.9 19.6 V 703 – Catalina Sky Survey MPS 373299
2011 03 05.37035 11 48 04.37 +06 43 28.7 19.8   704 – Lincoln Laboratory ETS, New Mexico MPS 374720
2011 03 05.38358 11 48 03.63 +06 43 35.2 19.9   704 – Lincoln Laboratory ETS, New Mexico MPS 374720
2011 03 05.39634 11 48 02.80 +06 43 41.1 19.6   704 – Lincoln Laboratory ETS, New Mexico MPS 374720
2011 03 06.35476 11 47 08.91 +06 50 14.4 19.1 V G96 – Mt. Lemmon Survey MPS 374720
2011 03 06.36460 11 47 08.34 +06 50 18.4 19.3 V G96 – Mt. Lemmon Survey MPS 374720
